This demonstration page uses our WeatherBlox Daily Observations layout. Learn more.

Left ArrowRight Arrow

Hourly Observations for September 30, 2018

Temp ( °F °C ) Dew Point ( °F °C ) Humidity (%) Winds ( mph kmh ) Pressure ( in mb ) Visibility ( mi km ) Precip ( " mm )
12:53 am 00:53 Clear 67 19.4 63 17.2 87 87 SE 8 13 29.96 1015 10 16 0.00 0.00
1:53 am 01:53 Clear 66 18.9 63 17.2 90 90 SE 8 13 29.95 1014 10 16 0.00 0.00
2:53 am 02:53 Clear 66 18.9 64 17.8 93 93 SE 10 17 29.94 1014 10 16 0.00 0.00
3:53 am 03:53 Clear 66 18.9 64 17.8 93 93 ESE 9 15 29.93 1014 8 13 0.00 0.00
4:53 am 04:53 Clear 66 18.9 64 17.8 93 93 ESE 10 17 29.93 1014 7 11 0.00 0.00
5:53 am 05:53 Clear 66 18.9 64 17.8 93 93 ESE 13 20 29.93 1014 7 11 0.00 0.00
6:53 am 06:53 Clear 65 18.3 64 17.8 97 97 SE 14 22 29.95 1014 7 11 0.00 0.00
7:53 am 07:53 Sunny 65 18.3 64 17.8 97 97 SE 10 17 29.97 1015 7 11 0.00 0.00
8:53 am 08:53 Sunny 67 19.4 64 17.8 91 91 SE 14 22 29.99 1016 7 11 0.00 0.00
9:00 am 09:00 Mostly Sunny 67 19.4 64 17.8 91 91 SE 12 19 30.03 1017 8 13 0.00 0.00
9:53 am 09:53 Mostly Sunny 70 21.1 64 17.8 82 82 SSE 14 22 30.00 1016 10 16 0.00 0.00
10:53 am 10:53 Sunny 74 23.3 64 17.8 71 71 SE 13 20 29.99 1016 10 16 0.00 0.00
11:53 am 11:53 Sunny 79 26.1 63 17.2 58 58 SSE 10 17 29.98 1015 10 16 0.00 0.00
12:53 pm 12:53 Sunny 82 27.8 63 17.2 53 53 S 8 13 29.96 1015 10 16 0.00 0.00
1:53 pm 13:53 Sunny 85 29.4 62 16.7 46 46 SSE 8 13 29.93 1014 10 16 0.00 0.00
2:53 pm 14:53 Sunny 87 30.6 59 15 39 39 Calm 29.91 1013 10 16 0.00 0.00
3:53 pm 15:53 Sunny 88 31.1 58 14.4 36 36 SE 9 15 29.89 1012 10 16 0.00 0.00
4:53 pm 16:53 Sunny 88 31.1 57 13.9 35 35 SE 12 19 29.88 1012 10 16 0.00 0.00
5:53 pm 17:53 Sunny 87 30.6 54 12.2 32 32 SE 10 17 29.86 1011 10 16 0.00 0.00
6:53 pm 18:53 Sunny 85 29.4 56 13.3 37 37 SE 15 24 29.87 1011 10 16 0.00 0.00
7:53 pm 19:53 Clear 80 26.7 57 13.9 45 45 SE 15 24 29.88 1012 10 16 0.00 0.00
8:53 pm 20:53 Clear 77 25 59 15 54 54 SE 13 20 29.91 1013 10 16 0.00 0.00
9:53 pm 21:53 Clear 74 23.3 61 16.1 64 64 SE 13 20 29.93 1014 10 16 0.00 0.00
10:53 pm 22:53 Clear 72 22.2 62 16.7 71 71 SE 9 15 29.96 1014 10 16 0.00 0.00
11:53 pm 23:53 Clear 70 21.1 62 16.7 76 76 SE 10 17 29.95 1014 10 16 0.00 0.00

Powered by AerisWeather